| time (UTC) | temp C | wind direction | speed KPH | gust KPH | rain 1hr cm | rain 24hr cm | rain mn cm | humidity % | barometer mb |
| 20260504181821 | 22 | 296 | 4.8 | 16.1 | 0.00 | 0.00 | 0.00 | 38 | 1010.7 |
| 20260504180334 | 21 | 202 | 1.6 | 14.5 | 0.00 | 0.00 | 0.00 | 40 | 1010.9 |
| 20260504174843 | 21 | 232 | 3.2 | 20.9 | 0.00 | 0.00 | 0.00 | 39 | 1011.1 |
| 20260504173352 | 21 | 252 | 4.8 | 16.1 | 0.00 | 0.00 | 0.00 | 39 | 1011.3 |
| 20260504171817 | 20 | 207 | 3.2 | 17.7 | 0.00 | 0.00 | 0.00 | 43 | 1011.5 |
| 20260504170316 | 20 | 174 | 6.4 | 24.1 | 0.00 | 0.00 | 0.00 | 39 | 1011.8 |
| 20260504160331 | 20 | 234 | 3.2 | 16.1 | 0.00 | 0.00 | 0.00 | 43 | 1012.5 |
| 20260504150344 | 18 | 215 | 4.8 | 16.1 | 0.00 | 0.00 | 0.00 | 48 | 1013.2 |
| 20260504140328 | 16 | 213 | 4.8 | 9.7 | 0.00 | 0.00 | 0.00 | 58 | 1013.4 |
| 20260504130329 | 13 | 219 | 1.6 | 16.1 | 0.00 | 0.00 | 0.00 | 70 | 1013.9 |
| 20260504120317 | 11 | 203 | 4.8 | 14.5 | 0.00 | 0.00 | 0.00 | 78 | 1014.1 |
| 20260504110317 | 5 | 296 | 0.0 | 6.4 | 0.00 | 0.00 | 0.00 | 90 | 1014.5 |
| 20260504100327 | 2 | 298 | 0.0 | 1.6 | 0.00 | 0.00 | 0.00 | 90 | 1014.5 |
| 20260504081817 | 3 | 298 | 0.0 | 0.0 | 0.00 | 0.00 | 0.00 | 90 | 1014.3 |
| 20260504080333 | 3 | 298 | 0.0 | 0.0 | 0.00 | 0.00 | 0.00 | 90 | 1014.3 |
| 20260504070318 | 4 | 298 | 0.0 | 1.6 | 0.00 | 0.00 | 0.00 | 89 | 1014.2 |
| 20260504050329 | 5 | 298 | 0.0 | 0.0 | 0.00 | 0.00 | 0.00 | 89 | 1014.1 |
| 20260504044839 | 5 | 298 | 0.0 | 0.0 | 0.00 | 0.00 | 0.00 | 88 | 1014.0 |
| 20260504043329 | 5 | 298 | 0.0 | 0.0 | 0.00 | 0.00 | 0.00 | 88 | 1014.0 |
| 20260504041817 | 5 | 298 | 0.0 | 0.0 | 0.00 | 0.00 | 0.00 | 88 | 1013.8 |
| 20260504040328 | 5 | 298 | 0.0 | 0.0 | 0.00 | 0.00 | 0.00 | 87 | 1013.6 |
| 20260504034819 | 5 | 298 | 0.0 | 0.0 | 0.00 | 0.00 | 0.00 | 87 | 1013.5 |
| 20260504033318 | 5 | 298 | 0.0 | 0.0 | 0.00 | 0.00 | 0.00 | 86 | 1013.5 |
| 20260504031828 | 6 | 298 | 0.0 | 0.0 | 0.00 | 0.00 | 0.00 | 85 | 1013.4 |
| 20260504030345 | 6 | 298 | 0.0 | 0.0 | 0.00 | 0.00 | 0.00 | 85 | 1013.3 |
| 20260504024814 | 6 | 298 | 0.0 | 0.0 | 0.00 | 0.00 | 0.00 | 84 | 1013.4 |
| 20260504023347 | 6 | 298 | 0.0 | 0.0 | 0.00 | 0.00 | 0.00 | 83 | 1013.4 |
| 20260504021820 | 7 | 298 | 0.0 | 0.0 | 0.00 | 0.00 | 0.00 | 82 | 1013.4 |
| 20260504020330 | 7 | 298 | 0.0 | 0.0 | 0.00 | 0.00 | 0.00 | 80 | 1013.3 |
| 20260504014826 | 8 | 298 | 0.0 | 0.0 | 0.00 | 0.00 | 0.00 | 78 | 1013.2 |
| 20260504013330 | 8 | 298 | 0.0 | 0.0 | 0.00 | 0.00 | 0.00 | 76 | 1013.1 |
| 20260504011845 | 9 | 298 | 0.0 | 0.0 | 0.00 | 0.00 | 0.00 | 74 | 1012.9 |
| 20260504010355 | 10 | 298 | 0.0 | 0.0 | 0.00 | 0.00 | 0.00 | 72 | 1012.8 |
| 20260504004822 | 10 | 298 | 0.0 | 0.0 | 0.00 | 0.00 | 0.00 | 67 | 1012.6 |
| 20260504003337 | 11 | 298 | 0.0 | 0.0 | 0.00 | 0.00 | 0.00 | 61 | 1012.3 |
| 20260504001847 | 12 | 298 | 0.0 | 0.0 | 0.00 | 0.00 | 0.00 | 56 | 1012.2 |
| 20260504000314 | 12 | 298 | 0.0 | 3.2 | 0.00 | 0.00 | 0.00 | 50 | 1012.1 |
| 20260503234831 | 13 | 298 | 0.0 | 0.0 | 0.00 | 0.00 | 0.00 | 48 | 1011.9 |
| 20260503233325 | 13 | 298 | 0.0 | 0.0 | 0.00 | 0.00 | 0.00 | 44 | 1011.8 |
| 20260503231821 | 14 | 298 | 0.0 | 1.6 | 0.00 | 0.00 | 0.00 | 43 | 1011.7 |
| 20260503230332 | 14 | 298 | 0.0 | 8.0 | 0.00 | 0.00 | 0.00 | 41 | 1011.7 |
| 20260503224831 | 15 | 300 | 0.0 | 9.7 | 0.00 | 0.00 | 0.00 | 38 | 1011.6 |
| 20260503223345 | 15 | 291 | 1.6 | 8.0 | 0.00 | 0.00 | 0.00 | 35 | 1011.6 |
| 20260503221837 | 15 | 239 | 1.6 | 6.4 | 0.00 | 0.00 | 0.00 | 36 | 1011.6 |
| 20260503220329 | 15 | 217 | 3.2 | 8.0 | 0.00 | 0.00 | 0.00 | 36 | 1011.5 |
| 20260503214821 | 15 | 319 | 1.6 | 9.7 | 0.00 | 0.00 | 0.00 | 36 | 1011.5 |
| 20260503213355 | 15 | 300 | 0.0 | 9.7 | 0.00 | 0.00 | 0.00 | 37 | 1011.5 |
| 20260503211822 | 15 | 288 | 1.6 | 8.0 | 0.00 | 0.00 | 0.00 | 36 | 1011.5 |
| 20260503210331 | 15 | 257 | 1.6 | 6.4 | 0.00 | 0.00 | 0.00 | 38 | 1011.5 |
| 20260503204820 | 15 | 317 | 1.6 | 9.7 | 0.00 | 0.00 | 0.00 | 37 | 1011.6 |
| 20260503203329 | 15 | 325 | 1.6 | 9.7 | 0.00 | 0.00 | 0.00 | 36 | 1011.8 |
| 20260503201823 | 15 | 266 | 3.2 | 14.5 | 0.00 | 0.00 | 0.00 | 37 | 1011.8 |
| 20260503200347 | 15 | 277 | 0.0 | 9.7 | 0.00 | 0.00 | 0.00 | 36 | 1011.8 |
| 20260503194855 | 15 | 259 | 4.8 | 11.3 | 0.00 | 0.00 | 0.00 | 36 | 1012.0 |
| 20260503193327 | 15 | 307 | 3.2 | 9.7 | 0.00 | 0.00 | 0.00 | 35 | 1012.1 |
| 20260503191815 | 15 | 234 | 3.2 | 12.9 | 0.00 | 0.00 | 0.00 | 37 | 1012.3 |
| 20260503190330 | 15 | 327 | 4.8 | 14.5 | 0.00 | 0.00 | 0.00 | 36 | 1012.3 |
| 20260503184828 | 15 | 346 | 3.2 | 17.7 | 0.00 | 0.00 | 0.00 | 37 | 1012.5 |
| 20260503183320 | 15 | 248 | 1.6 | 11.3 | 0.00 | 0.00 | 0.00 | 40 | 1012.6 |